GW4913 Weather Reports


time (UTC)temp
F
wind
direction
speed
knots
gust
knots
rain 1hr
in
rain 24hr
in
rain mn
in
humidity
%
barometer
mb
20260504081519 91 315 0.9 4.3 0.00 0.11 0.10 49 1018.5
20260504080539 90 45 1.7 5.2 0.00 0.11 0.10 49 1018.7
20260504050519 84 293 1.7 7.0 0.00 0.11 0.10 64 1021.4
20260504045519 84 293 0.9 4.3 0.00 0.11 0.10 67 1021.7
20260504044539 84 248 1.7 5.2 0.00 0.11 0.10 66 1021.6
20260504043519 84 293 2.6 6.1 0.00 0.11 0.10 68 1021.7
20260504042519 84 0.0 3.5 0.00 0.11 0.10 70 1021.8
20260504041519 82 248 1.7 6.1 0.00 0.11 0.10 71 1021.5
20260504040519 82 248 1.7 6.1 0.00 0.11 0.10 71 1021.6
20260504035519 82 248 0.9 7.0 0.00 0.11 0.10 73 1021.8
20260504034519 81 270 0.9 7.0 0.00 0.11 0.10 74 1021.5
20260504033519 81 270 0.9 7.8 0.00 0.11 0.10 75 1021.4
20260504032519 80 270 0.9 3.5 0.00 0.11 0.10 79 1021.5
20260504031539 80 0.0 3.5 0.00 0.11 0.10 78 1021.3
20260504030519 78 270 0.9 7.0 0.00 0.11 0.10 79 1021.1
20260504025519 77 270 0.9 4.3 0.00 0.11 0.10 82 1021.2
20260504024519 77 0.0 3.5 0.00 0.11 0.10 83 1021.0
20260504023539 77 0.0 2.6 0.00 0.11 0.10 86 1020.8
20260504022519 76 0.0 2.6 0.00 0.11 0.10 86 1020.9
20260504021519 75 0.0 2.6 0.00 0.11 0.10 86 1020.9
20260504020519 74 248 0.9 2.6 0.00 0.11 0.10 86 1020.5
20260504015519 74 0.0 2.6 0.02 0.11 0.10 85 1020.4
20260504014519 73 0.0 0.0 0.10 0.11 0.10 85 1020.3
20260504013519 72 0.0 0.0 0.10 0.11 0.10 84 1020.2
20260504012519 71 0.0 0.0 0.10 0.11 0.10 84 1020.0
20260504011519 71 0.0 0.0 0.10 0.11 0.10 85 1020.2
20260504010519 72 0.0 0.9 0.10 0.11 0.10 83 1020.5
20260504005519 72 0.0 0.0 0.08 0.09 0.08 78 1020.4
20260504004519 73 0.0 3.5 0.00 0.01 0.00 75 1020.6
20260504003539 74 90 2.6 7.8 0.00 0.01 0.00 75 1020.6
20260504002518 74 0.0 1.7 0.00 0.01 0.00 85 1020.8
20260504001519 74 0.0 1.7 0.00 0.01 0.00 85 1020.7
20260504000519 75 0.0 0.9 0.00 0.01 0.00 84 1020.5
20260503235518 75 0.0 1.7 0.00 0.01 0.00 84 1020.2
20260503234518 75 0.0 0.9 0.00 0.01 0.00 84 1020.2
20260503233518 75 0.0 0.9 0.00 0.01 0.00 84 1020.0
20260503232519 75 0.0 3.5 0.00 0.01 0.00 84 1019.8
20260503231518 75 0.0 0.0 0.00 0.01 0.00 84 1019.8
20260503230518 75 0.0 1.7 0.00 0.01 0.00 84 1019.8
20260503225518 75 0.0 0.9 0.00 0.01 0.00 84 1019.6
20260503224518 75 0.0 0.0 0.00 0.01 0.00 84 1019.4
20260503223518 75 135 0.9 2.6 0.00 0.01 0.00 84 1019.2
20260503222518 75 0.0 0.9 0.00 0.01 0.00 84 1019.4
20260503221558 75 0.0 1.7 0.00 0.01 0.00 84 1019.4
20260503220538 75 0.0 1.7 0.00 0.01 0.00 84 1019.2
20260503215538 75 0.0 0.9 0.00 0.01 0.00 84 1019.2
20260503214518 75 0.0 4.3 0.00 0.01 0.00 83 1018.9
20260503213518 76 135 0.9 3.5 0.00 0.01 0.00 83 1018.7
20260503212518 76 248 0.9 6.1 0.00 0.01 0.00 83 1019.0
20260503211518 76 203 0.9 4.3 0.00 0.01 0.00 82 1019.1
20260503210518 76 248 0.9 5.2 0.00 0.01 0.00 82 1019.2
20260503205518 76 0.0 2.6 0.00 0.01 0.00 82 1019.3
20260503204518 76 225 0.9 4.3 0.00 0.01 0.00 82 1019.5
20260503203538 77 0.0 2.6 0.00 0.01 0.00 81 1019.7
20260503202518 77 0.0 4.3 0.00 0.01 0.00 81 1019.6
20260503201518 77 225 0.9 5.2 0.00 0.01 0.00 80 1019.6
20260503200518 77 135 0.9 3.5 0.00 0.01 0.00 80 1019.7
20260503195518 78 135 0.9 3.5 0.00 0.01 0.00 80 1019.7
20260503194518 78 90 0.9 6.1 0.00 0.01 0.00 80 1020.0
20260503193519 78 113 0.9 3.5 0.00 0.01 0.00 80 1020.2
20260503192518 78 135 0.9 5.2 0.00 0.01 0.00 79 1020.5
20260503191518 79 180 1.7 6.1 0.00 0.01 0.00 79 1020.8
20260503190520 79 135 1.7 5.2 0.00 0.01 0.00 78 1020.9
20260503185518 80 158 1.7 5.2 0.00 0.01 0.00 77 1021.1
20260503184538 80 135 1.7 6.1 0.00 0.01 0.00 76 1021.3
20260503183518 80 0.0 4.3 0.00 0.01 0.00 74 1021.4
20260503183018 80 135 0.9 5.2 0.00 0.01 0.01 73 1021.3
20260503182018 80 158 0.9 4.3 0.00 0.01 0.01 74 1021.6
20260503181018 80 135 0.9 3.5 0.00 0.01 0.01 74 1021.3
20260503180018 80 0.0 3.5 0.00 0.01 0.01 74 1021.2
20260503175018 81 135 0.9 6.1 0.00 0.01 0.01 73 1020.9
20260503174018 81 0.0 2.6 0.00 0.01 0.01 72 1021.1
20260503173018 81 0.0 1.7 0.00 0.01 0.01 71 1021.2
20260503172018 82 0.0 2.6 0.00 0.01 0.01 69 1021.0
20260503171018 82 135 1.7 4.3 0.00 0.01 0.01 67 1020.9
20260503131020 90 270 0.9 3.5 0.00 0.01 0.01 43 1016.6